When you browse on this site, cookies collect data to enhance your experience and personalize the content and advertising you see.
Visit our Privacy Policy to learn more. By continuing to use the site, you agree to this use of cookies and data.
  • In Hungary
  • List of Countries
  • For 7 days
  • Water Temperature
  • Satellite Maps
  • Weather Map
  • News
  • Weather Widgets
  • user-avatar
    Login

    Hourly Weather Dhermi

    Today, 19 February, Tuesday

    Time Temperature Precipitation Wind Pressure Humidity
    00:00 +8°C° 0 mm 1 mps 726 mmHg 79%
    01:00 +8°C° 0 mm 1 mps 726 mmHg 79%
    02:00 +8°C° 0 mm 1 mps 726 mmHg 80%
    03:00 +7°C° 0 mm 1 mps 726 mmHg 81%
    04:00 +7°C° 0 mm 1 mps 726 mmHg 82%
    05:00 +7°C° 0 mm 1 mps 726 mmHg 82%
    06:00 +7°C° 0 mm 1 mps 726 mmHg 82%
    07:00 +7°C° 0 mm 1 mps 726 mmHg 82%
    08:00 +8°C° 0 mm 1 mps 726 mmHg 76%
    09:00 +10°C° 0 mm 1 mps 726 mmHg 69%
    10:00 +12°C° 0 mm 1 mps 726 mmHg 63%
    11:00 +12°C° 0 mm 2 mps 726 mmHg 61%
    12:00 +13°C° 0 mm 2 mps 726 mmHg 59%
    13:00 +13°C° 0 mm 2 mps 725 mmHg 58%
    14:00 +13°C° 0 mm 2 mps 725 mmHg 62%
    15:00 +13°C° 0 mm 2 mps 725 mmHg 66%
    16:00 +12°C° 0 mm 2 mps 725 mmHg 70%
    17:00 +11°C° 0 mm 1 mps 725 mmHg 77%
    18:00 +10°C° 0 mm 1 mps 725 mmHg 84%
    19:00 +8°C° 0 mm 0 mps 725 mmHg 90%
    20:00 +8°C° 0 mm 0 mps 725 mmHg 91%
    21:00 +7°C° 0 mm 0 mps 725 mmHg 92%
    22:00 +7°C° 0 mm 0 mps 725 mmHg 93%
    23:00 +7°C° 0 mm 0 mps 725 mmHg 92%

    Tomorrow, 20 February, Wednesday

    Time Temperature Precipitation Wind Pressure Humidity
    00:00 +7°C° 0 mm 0 mps 726 mmHg 92%
    01:00 +6°C° 0 mm 0 mps 726 mmHg 92%
    02:00 +6°C° 0 mm 0 mps 725 mmHg 92%
    03:00 +6°C° 0 mm 0 mps 725 mmHg 92%
    04:00 +6°C° 0 mm 0 mps 725 mmHg 92%
    05:00 +5°C° 0 mm 0 mps 725 mmHg 91%
    06:00 +5°C° 0 mm 0 mps 725 mmHg 91%
    07:00 +6°C° 0 mm 1 mps 725 mmHg 90%
    08:00 +8°C° 0 mm 1 mps 726 mmHg 81%
    09:00 +9°C° 0 mm 1 mps 726 mmHg 72%
    10:00 +11°C° 0 mm 1 mps 726 mmHg 63%
    11:00 +12°C° 0 mm 2 mps 726 mmHg 61%
    12:00 +11°C° 0 mm 3 mps 726 mmHg 59%
    13:00 +12°C° 0 mm 3 mps 726 mmHg 57%
    14:00 +12°C° 0 mm 4 mps 726 mmHg 60%
    15:00 +12°C° 0 mm 4 mps 726 mmHg 64%
    16:00 +11°C° 0 mm 4 mps 726 mmHg 67%
    17:00 +10°C° 0 mm 4 mps 726 mmHg 74%
    18:00 +8°C° 0 mm 4 mps 726 mmHg 80%
    19:00 +8°C° 0 mm 3 mps 726 mmHg 86%
    20:00 +7°C° 0 mm 3 mps 726 mmHg 87%
    21:00 +7°C° 0 mm 3 mps 727 mmHg 87%
    22:00 +7°C° 0 mm 3 mps 727 mmHg 88%
    23:00 +5°C° 0 mm 3 mps 727 mmHg 87%

    Day after tomorrow, 21 February, Thursday

    Time Temperature Precipitation Wind Pressure Humidity
    00:00 +5°C° 0 mm 3 mps 727 mmHg 86%
    01:00 +5°C° 0 mm 3 mps 727 mmHg 86%
    02:00 +5°C° 0 mm 3 mps 727 mmHg 85%
    03:00 +5°C° 0 mm 3 mps 727 mmHg 85%
    04:00 +5°C° 0 mm 3 mps 727 mmHg 84%
    05:00 +4°C° 0 mm 3 mps 727 mmHg 83%
    06:00 +4°C° 0 mm 3 mps 727 mmHg 81%
    07:00 +4°C° 0 mm 3 mps 728 mmHg 80%
    08:00 +7°C° 0 mm 3 mps 728 mmHg 72%
    09:00 +9°C° 0 mm 3 mps 728 mmHg 64%
    10:00 +11°C° 0 mm 3 mps 728 mmHg 56%
    11:00 +12°C° 0 mm 3 mps 728 mmHg 53%
    12:00 +13°C° 0 mm 3 mps 728 mmHg 50%
    13:00 +14°C° 0 mm 3 mps 728 mmHg 48%
    14:00 +13°C° 0 mm 4 mps 728 mmHg 52%
    15:00 +13°C° 0 mm 4 mps 728 mmHg 57%
    16:00 +12°C° 0 mm 5 mps 728 mmHg 62%
    17:00 +10°C° 0 mm 5 mps 728 mmHg 68%
    18:00 +8°C° 0 mm 4 mps 728 mmHg 75%
    19:00 +7°C° 0 mm 4 mps 728 mmHg 81%
    20:00 +7°C° 0 mm 4 mps 728 mmHg 80%
    21:00 +6°C° 0 mm 4 mps 728 mmHg 79%
    22:00 +7°C° 0 mm 3 mps 728 mmHg 79%
    23:00 +7°C° 0 mm 3 mps 728 mmHg 78%

    22 February, Friday

    Time Temperature Precipitation Wind Pressure Humidity
    00:00 +7°C° 0 mm 3 mps 728 mmHg 77%
    01:00 +7°C° 0 mm 3 mps 728 mmHg 77%
    02:00 +5°C° 0 mm 3 mps 727 mmHg 78%
    03:00 +5°C° 0 mm 3 mps 727 mmHg 79%
    04:00 +5°C° 0 mm 4 mps 727 mmHg 80%
    05:00 +5°C° 0 mm 4 mps 727 mmHg 81%
    06:00 +5°C° 0 mm 3 mps 726 mmHg 82%
    07:00 +5°C° 0 mm 3 mps 726 mmHg 83%
    08:00 +7°C° 0 mm 4 mps 726 mmHg 79%
    09:00 +8°C° 0 mm 4 mps 726 mmHg 75%
    10:00 +11°C° 0 mm 4 mps 726 mmHg 72%
    11:00 +10°C° 0 mm 5 mps 725 mmHg 69%
    12:00 +11°C° 0 mm 6 mps 725 mmHg 67%
    13:00 +13°C° 0 mm 6 mps 724 mmHg 65%
    14:00 +11°C° 0 mm 6 mps 724 mmHg 66%
    15:00 +10°C° 0 mm 7 mps 723 mmHg 67%
    16:00 +10°C° 0 mm 7 mps 723 mmHg 69%
    17:00 +9°C° 0 mm 7 mps 723 mmHg 74%
    18:00 +8°C° 0 mm 6 mps 723 mmHg 80%
    19:00 +7°C° 0 mm 5 mps 723 mmHg 85%
    20:00 +5°C° 0 mm 6 mps 723 mmHg 83%
    21:00 +5°C° 0 mm 6 mps 723 mmHg 81%
    22:00 +5°C° 0 mm 6 mps 723 mmHg 79%
    23:00 +5°C° 0 mm 6 mps 723 mmHg 78%

    23 February, Saturday

    Time Temperature Precipitation Wind Pressure Humidity
    00:00 +4°C° 0 mm 7 mps 723 mmHg 76%
    01:00 +4°C° 0 mm 7 mps 723 mmHg 75%
    02:00 +3°C° 0 mm 7 mps 723 mmHg 74%
    03:00 +3°C° 0 mm 6 mps 723 mmHg 73%
    04:00 +2°C° 0 mm 6 mps 723 mmHg 71%
    05:00 +2°C° 0 mm 6 mps 724 mmHg 67%
    06:00 +1°C° 0 mm 6 mps 724 mmHg 63%
    07:00 +1°C° 0 mm 6 mps 724 mmHg 59%
    08:00 +2°C° 0 mm 6 mps 725 mmHg 54%
    09:00 +3°C° 0 mm 6 mps 726 mmHg 50%
    10:00 +4°C° 0 mm 6 mps 726 mmHg 45%
    11:00 +6°C° 0 mm 5 mps 726 mmHg 41%
    12:00 +6°C° 0 mm 5 mps 727 mmHg 38%
    13:00 +6°C° 0 mm 5 mps 727 mmHg 34%
    14:00 +5°C° 0 mm 5 mps 727 mmHg 35%
    15:00 +5°C° 0 mm 5 mps 727 mmHg 35%
    16:00 +3°C° 0 mm 5 mps 727 mmHg 36%
    17:00 +2°C° 0 mm 5 mps 727 mmHg 39%
    18:00 +1°C° 0 mm 5 mps 727 mmHg 43%
    19:00 0°C° 0 mm 5 mps 727 mmHg 46%
    20:00 0°C° 0 mm 4 mps 727 mmHg 46%
    21:00 0°C° 0 mm 4 mps 728 mmHg 46%
    22:00 -1°C° 0 mm 4 mps 728 mmHg 46%
    23:00 -1°C° 0 mm 4 mps 728 mmHg 46%

    24 February, Sunday

    Time Temperature Precipitation Wind Pressure Humidity
    00:00 -1°C° 0 mm 4 mps 727 mmHg 45%
    01:00 -1°C° 0 mm 4 mps 727 mmHg 44%
    02:00 -1°C° 0 mm 4 mps 727 mmHg 43%
    03:00 -1°C° 0 mm 4 mps 727 mmHg 42%
    04:00 -2°C° 0 mm 4 mps 726 mmHg 40%
    05:00 -2°C° 0 mm 4 mps 727 mmHg 40%
    06:00 -2°C° 0 mm 4 mps 727 mmHg 40%
    07:00 -2°C° 0 mm 4 mps 727 mmHg 40%
    08:00 0°C° 0 mm 4 mps 727 mmHg 37%
    09:00 +1°C° 0 mm 4 mps 727 mmHg 34%
    10:00 +3°C° 0 mm 4 mps 728 mmHg 31%
    11:00 +4°C° 0 mm 4 mps 728 mmHg 31%
    12:00 +5°C° 0 mm 5 mps 728 mmHg 31%
    13:00 +6°C° 0 mm 5 mps 727 mmHg 31%
    14:00 +6°C° 0 mm 5 mps 727 mmHg 34%
    15:00 +5°C° 0 mm 6 mps 727 mmHg 36%
    16:00 +5°C° 0 mm 6 mps 727 mmHg 38%
    17:00 +4°C° 0 mm 6 mps 727 mmHg 43%
    18:00 +2°C° 0 mm 6 mps 727 mmHg 48%
    19:00 +1°C° 0 mm 6 mps 727 mmHg 53%
    20:00 +1°C° 0 mm 6 mps 727 mmHg 53%
    21:00 0°C° 0 mm 5 mps 727 mmHg 53%
    22:00 0°C° 0 mm 5 mps 727 mmHg 53%
    23:00 0°C° 0 mm 4 mps 726 mmHg 52%
    Show more